Location: Valdosta
(30.8330°N, 83.2790°W)
Time: 23:21:04
(UTC-05:00)

Amateur Radio Satellites - All Passes

Search period start: 25 January 2015 22:51
Search period end: 26 January 2015 22:51
Location: Valdosta, 30.8330°N, 83.2790°W

Satellite Date Start Highest point End Downlink Frequencies (MHz)
Time Altitude Azimuth
UKube-1 25 Jan 22:56:44 22:59:36 17° 266° (W) 23:02:18 .
DELFI C3 25 Jan 22:58:21 22:59:12 10° 269° (W) 22:59:45 145.870
QB50P2 25 Jan 22:59:25 23:03:20 34° 98° (E) 23:07:16 145.880/145.840
ZACube-1 25 Jan 23:03:03 23:06:24 19° 266° (W) 23:09:37 437.345
ESTCUBE 1 25 Jan 23:07:00 23:11:29 83° 77° (ENE) 23:15:59 437.505/2401.250
QB50P1 25 Jan 23:10:00 23:14:09 46° 99° (E) 23:18:17 145.935-145.965
SRMSAT 25 Jan 23:11:55 23:16:56 28° 183° (S) 23:21:56 437.500
ANTELSAT 25 Jan 23:16:22 23:20:50 80° 283° (WNW) 23:25:11 437.575/2403.000
FUNcube-1 25 Jan 23:17:29 23:19:53 14° 269° (W) 23:22:01 145.935
AISAT 25 Jan 23:17:31 23:21:20 27° 264° (W) 23:25:06 437.250
POLYITAN 1 25 Jan 23:21:58 23:26:16 68° 101° (E) 23:30:32 437.675
TISAT 1 25 Jan 23:24:17 23:27:36 24° 72° (ENE) 23:31:02 437.305
TIGRISAT 25 Jan 23:26:33 23:30:58 61° 284° (WNW) 23:35:15 435.000
HUMSAT D 25 Jan 23:37:56 23:40:07 13° 268° (W) 23:42:03 437.325/437.525
BUGSAT 1 25 Jan 23:42:18 23:46:36 89° 283° (WNW) 23:50:52 437.445
AIST 1 25 Jan 23:43:21 23:47:41 69° 266° (W) 23:52:02
POPSAT HIP 1 25 Jan 23:44:11 23:48:28 63° 284° (WNW) 23:52:42 437.405
DUCHIFAT 1 25 Jan 23:49:14 23:53:27 55° 284° (WNW) 23:57:37 145.980
VELOX 1 25 Jan 23:50:09 23:52:03 12° 268° (W) 23:53:40 145.980
50 SAT 25 Jan 23:50:35 23:52:06 11° 269° (W) 23:53:19 437.505
ISS 25 Jan 23:56:34 23:58:58 18° 324° (NW) 00:01:20 145.825
SPROUT 26 Jan 00:08:23 00:12:41 87° 84° (E) 00:17:01 437.525
CUBEBUG 1 26 Jan 00:09:00 00:12:08 19° 266° (W) 00:15:07 437.445
UNISAT 6 26 Jan 00:18:56 00:21:36 15° 290° (WNW) 00:24:03 437.425
NANOSAT C BR1 26 Jan 00:23:43 00:27:01 21° 288° (WNW) 00:30:12 145.865
JUGNU 26 Jan 00:29:57 00:32:53 14° 197° (SSW) 00:35:41 437.505
QB50P2 26 Jan 00:36:25 00:39:01 15° 290° (WNW) 00:41:25 145.880/145.840
QB50P1 26 Jan 00:48:07 00:49:41 11° 291° (WNW) 00:51:00 145.935-145.965
TISAT 1 26 Jan 01:00:09 01:03:24 21° 265° (W) 01:06:33 437.305
Oscar 19 26 Jan 01:00:23 01:03:37 17° 93° (E) 01:07:03 437.125/150
SRMSAT 26 Jan 01:01:23 01:05:37 20° 193° (SSW) 01:09:47 437.500
SWISSCUBE 26 Jan 01:12:52 01:17:35 67° 76° (ENE) 01:22:19 437.505
KKS-1 26 Jan 01:19:02 01:19:57 11° 68° (ENE) 01:21:11 437.445
GONETS M04 26 Jan 01:28:05 01:36:11 45° 90° (E) 01:44:22
BEESAT 26 Jan 01:29:23 01:34:09 86° 254° (WSW) 01:38:56 436.000
ITUPSAT 1 26 Jan 01:30:49 01:35:35 85° 255° (WSW) 01:40:23 437.325
BEESAT 2 26 Jan 02:09:36 02:10:42 11° 109° (ESE) 02:12:05 435.950
BEESAT 3 26 Jan 02:25:35 02:28:39 21° 111° (ESE) 02:31:51 437.485
Oscar 19 26 Jan 02:38:21 02:43:10 41° 287° (WNW) 02:47:56 437.125/150
M-CUBED/EXP-1 PRIME 26 Jan 02:43:39 02:47:55 58° 72° (ENE) 02:51:51 437.505
ITAMSAT 1 26 Jan 02:45:36 02:50:50 74° 102° (ESE) 02:56:03 435.822/435.867
KKS-1 26 Jan 02:51:50 02:56:12 54° 260° (W) 03:00:36 437.445
STARS 26 Jan 02:53:50 02:58:16 83° 258° (WSW) 03:02:45 437.465
HORYU 2 26 Jan 03:01:37 03:04:30 17° 94° (E) 03:07:32 437.375
AUBIESAT-1 26 Jan 03:20:05 03:24:18 52° 255° (WSW) 03:28:12 437.475
Gurwin Techsat 1B 26 Jan 03:20:36 03:25:55 75° 284° (WNW) 03:31:13 435.225
AIST 2 26 Jan 03:21:07 03:24:53 33° 113° (ESE) 03:28:45 435.215
O/OREOS (USA 219) 26 Jan 03:21:11 03:25:43 57° 69° (ENE) 03:30:13 437.305
GONETS M04 26 Jan 03:25:30 03:33:13 32° 286° (WNW) 03:40:41
AO-7 26 Jan 03:43:04 03:49:50 29° 96° (E) 03:56:51 29.400- 29.500
BEESAT 2 26 Jan 03:44:39 03:48:34 44° 300° (WNW) 03:52:34 435.950
DANDE 26 Jan 03:44:44 03:49:29 19° 84° (E) 03:55:07 436.750
RS-15 26 Jan 03:53:12 03:59:54 20° 105° (ESE) 04:07:21 29.354- 29.394
BEESAT 3 26 Jan 04:03:18 04:06:42 24° 305° (NW) 04:10:03 437.485
MOZHAYETS 4 26 Jan 04:04:39 04:08:31 28° 73° (ENE) 04:12:27
ITAMSAT 1 26 Jan 04:28:32 04:29:49 11° 294° (WNW) 04:30:43 435.822/435.867
CUSAT 1 26 Jan 04:30:27 04:37:42 53° 92° (E) 04:45:54 437.405
HORYU 2 26 Jan 04:37:20 04:41:16 31° 287° (WNW) 04:45:06 437.375
JAS-2 26 Jan 04:49:59 04:55:26 44° 100° (E) 05:01:34 435.910
PCSat 26 Jan 04:53:23 04:58:38 55° 112° (ESE) 05:03:57 145.827
AIST 2 26 Jan 05:00:38 05:03:37 18° 307° (NW) 05:06:31 435.215
DANDE 26 Jan 05:24:31 05:32:02 76° 279° (W) 05:40:44 436.750
AO-7 26 Jan 05:34:56 05:42:56 51° 291° (WNW) 05:50:48 29.400- 29.500
MOZHAYETS 4 26 Jan 05:42:14 05:45:45 21° 266° (W) 05:49:09
PRISM 26 Jan 05:44:26 05:48:09 34° 74° (ENE) 05:51:54 437.425
CUBESAT XI-V 26 Jan 05:46:59 05:50:37 24° 72° (ENE) 05:54:22 437.345
RS-15 26 Jan 06:00:20 06:11:20 80° 298° (WNW) 06:22:20 29.354- 29.394
Cubesat XI-IV 26 Jan 06:00:35 06:04:53 25° 95° (E) 06:09:19 437.490
STRAND 1 26 Jan 06:03:39 06:07:58 29° 72° (ENE) 06:12:24 437.568
CUSAT 1 26 Jan 06:14:28 06:21:10 29° 290° (WNW) 06:28:10 437.405
CUTE-I 26 Jan 06:21:07 06:26:07 40° 98° (E) 06:31:10 437.470
ISS 26 Jan 06:27:47 06:30:49 33° 41° (NE) 06:33:52 145.825
JAS-2 26 Jan 06:36:08 06:40:24 21° 289° (WNW) 06:44:47 435.910
PCSat 26 Jan 06:38:56 06:42:28 17° 308° (NW) 06:45:48 145.827
DANDE 26 Jan 07:13:28 07:17:15 13° 299° (WNW) 07:20:27 436.750
PRISM 26 Jan 07:21:41 07:23:50 13° 267° (W) 07:25:45 437.425
CUBESAT XI-V 26 Jan 07:24:17 07:28:02 24° 265° (W) 07:31:40 437.345
YUBILEINY 26 Jan 07:38:55 07:47:42 74° 83° (E) 07:56:30 435.215
Cubesat XI-IV 26 Jan 07:40:16 07:45:00 32° 289° (WNW) 07:49:40 437.490
STRAND 1 26 Jan 07:43:02 07:47:11 24° 265° (W) 07:51:13 437.568
CUTE-I 26 Jan 08:02:02 08:05:57 20° 291° (WNW) 08:09:42 437.470
BRITE-PL 26 Jan 08:05:02 08:08:37 18° 91° (E) 08:12:21 437.365/2234.400
ISS 26 Jan 08:05:10 08:07:09 15° 233° (SW) 08:09:00 145.825
RS-15 26 Jan 08:18:16 08:25:52 20° 323° (NW) 08:33:00 29.354- 29.394
GOMX 1 26 Jan 08:18:46 08:21:47 16° 90° (E) 08:25:01 467.674
CANX-2 26 Jan 08:26:25 08:29:03 17° 93° (E) 08:31:50 2200.000
VERMONT LUNAR 26 Jan 08:26:31 08:28:45 17° 141° (SE) 08:31:05 437.305
DOVE 4 26 Jan 08:46:45 08:50:33 21° 92° (E) 08:54:23 437.250
CUTE 1.7 + AOD 2 26 Jan 08:50:14 08:53:55 30° 97° (E) 08:57:39 437.475
AAUSAT CUBESAT 2 26 Jan 08:51:31 08:54:16 18° 94° (E) 08:57:10 437.432
CINEMA 3 26 Jan 09:00:21 09:02:52 15° 91° (E) 09:05:35 145.822/145.860
PHONESAT 2.4 26 Jan 09:04:33 09:07:08 19° 142° (SE) 09:09:49 2401.200-2431.200
HO-68 26 Jan 09:16:46 09:23:53 68° 103° (ESE) 09:31:01 435.675
SEEDS 26 Jan 09:25:21 09:29:33 73° 101° (E) 09:33:42 437.485
DX 1 26 Jan 09:30:40 09:32:49 14° 93° (E) 09:35:13 434.975-435.025
UNISAT 6 26 Jan 09:35:23 09:38:36 19° 71° (ENE) 09:41:58 437.425
FUNcube-1 26 Jan 09:35:30 09:37:08 12° 91° (E) 09:39:01 145.935
YUBILEINY 26 Jan 09:38:11 09:43:47 18° 276° (W) 09:48:50 435.215
BRITE-PL 26 Jan 09:41:58 09:47:25 48° 286° (WNW) 09:52:38 437.365/2234.400
UWE-3 26 Jan 09:45:29 09:48:52 21° 94° (E) 09:52:17 435.000/436.395/437.385
QB50P2 26 Jan 09:48:58 09:51:01 14° 70° (ENE) 09:53:19 145.880/145.840
GOMX 1 26 Jan 09:55:01 10:00:17 49° 286° (WNW) 10:05:15 467.674
COMPASS 1 26 Jan 09:57:01 10:01:04 52° 284° (WNW) 10:05:05 437.405
QB50P1 26 Jan 09:58:44 10:01:34 18° 71° (ENE) 10:04:32 145.935-145.965
CANX-2 26 Jan 10:01:24 10:05:04 29° 286° (WNW) 10:08:40 2200.000
VERMONT LUNAR 26 Jan 10:03:11 10:06:39 66° 334° (NNW) 10:10:08 437.305
VELOX 1 26 Jan 10:08:58 10:11:01 13° 92° (E) 10:13:20 145.980
ANTELSAT 26 Jan 10:09:40 10:14:09 47° 75° (ENE) 10:18:43 437.575/2403.000
POLYITAN 1 26 Jan 10:10:26 10:13:55 25° 73° (ENE) 10:17:31 437.675
Oscar 11 26 Jan 10:14:45 10:19:04 87° 288° (WNW) 10:23:22 145.826/435.025
SO-50 26 Jan 10:18:06 10:21:18 20° 110° (ESE) 10:24:44 436.795
TIGRISAT 26 Jan 10:19:20 10:23:57 59° 76° (ENE) 10:28:37 435.000
DOVE 4 26 Jan 10:23:43 10:28:25 34° 288° (WNW) 10:32:50 437.250
AAUSAT CUBESAT 2 26 Jan 10:26:28 10:29:58 26° 287° (WNW) 10:33:23 437.432
CUTE 1.7 + AOD 2 26 Jan 10:26:56 10:29:40 16° 289° (WNW) 10:32:13 437.475
BUGSAT 1 26 Jan 10:27:44 10:31:13 29° 73° (ENE) 10:34:48 437.445
POPSAT HIP 1 26 Jan 10:31:43 10:35:46 45° 75° (ENE) 10:39:54 437.405
CUBEBUG 2 26 Jan 10:33:43 10:38:19 78° 283° (WNW) 10:42:44 437.445
CINEMA 3 26 Jan 10:35:47 10:40:22 42° 286° (WNW) 10:44:43 145.822/145.860
DUCHIFAT 1 26 Jan 10:36:21 10:40:28 52° 75° (ENE) 10:44:38 145.980
DELFI C3 26 Jan 10:40:33 10:44:28 47° 284° (WNW) 10:48:20 145.870
PHONESAT 2.4 26 Jan 10:41:56 10:45:30 61° 333° (NNW) 10:49:07 2401.200-2431.200
UKube-1 26 Jan 10:48:12 10:52:32 64° 284° (WNW) 10:56:50 .
ZACube-1 26 Jan 10:56:18 11:00:41 60° 284° (WNW) 11:04:55 437.345
DX 1 26 Jan 11:05:11 11:09:17 38° 286° (WNW) 11:13:19 434.975-435.025
ESTCUBE 1 26 Jan 11:05:51 11:09:37 27° 96° (E) 11:13:29 437.505/2401.250
HO-68 26 Jan 11:06:15 11:11:03 19° 296° (WNW) 11:15:31 435.675
FUNcube-1 26 Jan 11:09:36 11:13:47 41° 286° (WNW) 11:17:50 145.935
NANOSAT C BR1 26 Jan 11:10:06 11:14:16 56° 260° (W) 11:18:28 145.865
UNISAT 6 26 Jan 11:10:54 11:15:10 33° 263° (W) 11:19:26 437.425
AISAT 26 Jan 11:13:15 11:17:48 87° 102° (ESE) 11:22:18 437.250
UWE-3 26 Jan 11:21:40 11:25:23 25° 288° (WNW) 11:28:56 435.000/436.395/437.385
QB50P2 26 Jan 11:22:41 11:26:40 37° 262° (W) 11:30:39 145.880/145.840
HUMSAT D 26 Jan 11:25:41 11:29:48 48° 285° (WNW) 11:33:49 437.325/437.525
50 SAT 26 Jan 11:32:44 11:36:42 52° 284° (WNW) 11:40:36 437.505
QB50P1 26 Jan 11:33:35 11:37:17 28° 263° (W) 11:40:57 145.935-145.965
VERMONT LUNAR 26 Jan 11:42:30 11:45:12 20° 349° (N) 11:47:53 437.305
VELOX 1 26 Jan 11:43:36 11:47:50 41° 286° (WNW) 11:52:01 145.980
POLYITAN 1 26 Jan 11:46:38 11:49:52 20° 265° (W) 11:52:58 437.675
GONETS M04 26 Jan 11:47:21 11:51:39 15° 66° (ENE) 11:56:35
ANTELSAT 26 Jan 11:48:55 11:51:15 13° 269° (W) 11:53:18 437.575/2403.000
SO-50 26 Jan 11:57:36 12:01:40 32° 304° (NW) 12:05:49 436.795
SPROUT 26 Jan 12:01:24 12:04:51 23° 95° (E) 12:08:23 437.525
CUBEBUG 1 26 Jan 12:01:59 12:06:24 66° 284° (WNW) 12:10:49 437.445
BUGSAT 1 26 Jan 12:04:18 12:06:49 15° 267° (W) 12:09:09 437.445
AIST 1 26 Jan 12:07:09 12:11:25 89° 275° (W) 12:15:41
BEESAT 2 26 Jan 12:10:09 12:13:19 21° 54° (NE) 12:16:32 435.950
POPSAT HIP 1 26 Jan 12:10:55 12:12:00 11° 269° (W) 12:12:46 437.405
Oscar 19 26 Jan 12:12:37 12:15:29 16° 68° (ENE) 12:18:35 437.125/150
PHONESAT 2.4 26 Jan 12:21:44 12:24:33 20° 350° (N) 12:27:21 2401.200-2431.200
BEESAT 3 26 Jan 12:27:12 12:31:03 37° 58° (ENE) 12:34:52 437.485
ESTCUBE 1 26 Jan 12:42:55 12:46:24 21° 288° (WNW) 12:49:45 437.505/2401.250
TISAT 1 26 Jan 12:49:18 12:53:37 86° 285° (WNW) 12:57:54 437.305
RS-15 26 Jan 12:57:45 13:04:37 18° 35° (NE) 13:12:17 29.354- 29.394
SWISSCUBE 26 Jan 13:19:22 13:23:22 27° 96° (E) 13:27:26 437.505
VERMONT LUNAR 26 Jan 13:21:41 13:24:07 17° 6° (N) 13:26:35 437.305
AIST 2 26 Jan 13:26:09 13:30:22 61° 61° (ENE) 13:34:30 435.215
BEESAT 26 Jan 13:35:30 13:39:55 37° 98° (E) 13:44:21 436.000
ITUPSAT 1 26 Jan 13:37:16 13:41:43 38° 99° (E) 13:46:12 437.325
SPROUT 26 Jan 13:37:27 13:40:52 22° 288° (WNW) 13:44:10 437.525
GONETS M04 26 Jan 13:41:00 13:49:43 84° 266° (W) 13:58:25
BEESAT 2 26 Jan 13:48:03 13:51:31 25° 248° (WSW) 13:54:52 435.950
PCSat 26 Jan 13:48:21 13:51:19 15° 51° (NE) 13:54:32 145.827
Oscar 19 26 Jan 13:49:26 13:54:28 50° 260° (W) 13:59:31 437.125/150
ITAMSAT 1 26 Jan 13:58:09 14:03:14 63° 76° (ENE) 14:08:23 435.822/435.867
PHONESAT 2.4 26 Jan 14:01:16 14:03:56 19° 7° (N) 14:06:37 2401.200-2431.200
BEESAT 3 26 Jan 14:06:47 14:08:54 13° 250° (WSW) 14:10:48 437.485
Gurwin Techsat 1B 26 Jan 14:36:07 14:41:25 82° 256° (WSW) 14:46:45 435.225
AO-7 26 Jan 14:36:50 14:43:07 26° 63° (ENE) 14:49:43 29.400- 29.500
KKS-1 26 Jan 14:48:37 14:52:54 44° 99° (E) 14:57:11 437.445
STARS 26 Jan 14:49:52 14:53:40 28° 97° (E) 14:57:30 437.465
SWISSCUBE 26 Jan 14:57:18 15:01:08 24° 289° (WNW) 15:04:51 437.505
VERMONT LUNAR 26 Jan 14:59:30 15:02:51 39° 22° (NNE) 15:06:12 437.305
RS-15 26 Jan 15:08:11 15:19:38 71° 60° (ENE) 15:31:38 29.354- 29.394
AUBIESAT-1 26 Jan 15:08:26 15:10:06 13° 99° (E) 15:11:56 437.475
BEESAT 26 Jan 15:14:21 15:17:31 17° 290° (WNW) 15:20:30 436.000
ITUPSAT 1 26 Jan 15:16:14 15:19:22 17° 290° (WNW) 15:22:18 437.325
CUSAT 1 26 Jan 15:20:59 15:25:40 23° 67° (ENE) 15:29:36 437.405
HORYU 2 26 Jan 15:29:40 15:34:09 67° 258° (WSW) 15:38:38 437.375
PCSat 26 Jan 15:29:54 15:35:15 62° 248° (WSW) 15:40:34 145.827
PHONESAT 2.4 26 Jan 15:39:33 15:43:05 44° 23° (NNE) 15:46:36 2401.200-2431.200
ITAMSAT 1 26 Jan 15:41:43 15:43:15 11° 270° (W) 15:44:22 435.822/435.867
GONETS M04 26 Jan 15:42:44 15:45:34 11° 278° (W) 15:47:30
O/OREOS (USA 219) 26 Jan 15:51:30 15:53:14 12° 101° (E) 15:55:14 437.305
M-CUBED/EXP-1 PRIME 26 Jan 16:05:58 16:09:15 63° 288° (WNW) 16:12:39 437.505
DANDE 26 Jan 16:17:07 16:23:46 73° 79° (E) 16:28:38 436.750
STARS 26 Jan 16:26:44 16:29:59 20° 289° (WNW) 16:33:06 437.465
KKS-1 26 Jan 16:27:01 16:29:13 13° 291° (WNW) 16:31:11 437.445
AO-7 26 Jan 16:27:11 16:35:26 61° 257° (WSW) 16:43:41 29.400- 29.500
VERMONT LUNAR 26 Jan 16:37:45 16:40:56 32° 216° (SW) 16:44:08 437.305
JAS-2 26 Jan 16:41:39 16:47:32 88° 81° (E) 16:52:54 435.910
AUBIESAT-1 26 Jan 16:42:28 16:45:04 21° 291° (WNW) 16:47:40 437.475
JUGNU 26 Jan 17:01:38 17:03:51 12° 162° (SSE) 17:06:12 437.505
CUSAT 1 26 Jan 17:03:40 17:08:50 30° 273° (W) 17:12:48 437.405
Cubesat XI-IV 26 Jan 17:17:37 17:21:46 25° 70° (ENE) 17:26:05 437.490
PHONESAT 2.4 26 Jan 17:18:21 17:21:35 29° 216° (SW) 17:24:47 2401.200-2431.200
RS-15 26 Jan 17:22:14 17:31:26 26° 254° (WSW) 17:40:16 29.354- 29.394
O/OREOS (USA 219) 26 Jan 17:28:04 17:32:19 42° 292° (WNW) 17:36:35 437.305
CUTE-I 26 Jan 17:37:45 17:42:36 39° 73° (ENE) 17:47:32 437.470
MOZHAYETS 4 26 Jan 17:41:43 17:46:12 56° 284° (WNW) 17:50:39
STRAND 1 26 Jan 18:20:40 18:23:35 16° 93° (E) 18:26:45 437.568
YUBILEINY 26 Jan 18:41:24 18:45:19 15° 83° (E) 18:49:57 435.215
JUGNU 26 Jan 18:47:45 18:52:20 23° 170° (S) 18:56:58 437.505
Cubesat XI-IV 26 Jan 18:57:01 19:01:45 32° 263° (W) 19:06:26 437.490
PRISM 26 Jan 19:07:37 19:11:43 62° 284° (WNW) 19:15:49 437.425
BRITE-PL 26 Jan 19:13:32 19:13:41 10° 65° (ENE) 19:14:14 437.365/2234.400
CUTE-I 26 Jan 19:18:58 19:22:51 20° 266° (W) 19:26:33 437.470
SRMSAT 26 Jan 19:22:55 19:26:44 18° 166° (SSE) 19:30:38 437.500
CUBESAT XI-V 26 Jan 19:25:29 19:30:07 63° 284° (WNW) 19:34:45 437.345
CUTE 1.7 + AOD 2 26 Jan 19:40:06 19:41:36 12° 70° (ENE) 19:43:20 437.475
HO-68 26 Jan 19:40:12 19:46:03 29° 67° (ENE) 19:52:04 435.675
DOVE 4 26 Jan 19:48:34 19:50:25 12° 67° (ENE) 19:52:37 437.250
STRAND 1 26 Jan 19:58:07 20:03:02 46° 287° (WNW) 20:07:55 437.568
SEEDS 26 Jan 20:12:48 20:16:17 25° 73° (ENE) 20:19:50 437.485
YUBILEINY 26 Jan 20:32:35 20:41:17 83° 276° (W) 20:50:01 435.215
SO-50 26 Jan 20:33:36 20:38:25 52° 59° (ENE) 20:43:13 436.795
JUGNU 26 Jan 20:35:49 20:40:53 29° 180° (S) 20:45:57 437.505
UWE-3 26 Jan 20:39:56 20:40:43 11° 68° (ENE) 20:41:50 435.000/436.395/437.385
COMPASS 1 26 Jan 20:42:56 20:47:01 49° 76° (ENE) 20:51:08 437.405
BRITE-PL 26 Jan 20:46:46 20:51:32 73° 260° (W) 20:56:44 437.365/2234.400
CANX-2 26 Jan 20:48:14 20:52:33 84° 257° (WSW) 20:56:52 2200.000
GOMX 1 26 Jan 20:56:55 21:01:46 82° 260° (W) 21:07:00 467.674
Oscar 11 26 Jan 21:04:18 21:08:16 35° 74° (ENE) 21:12:15 145.826/435.025
SRMSAT 26 Jan 21:10:27 21:15:25 27° 175° (S) 21:20:22 437.500
AAUSAT CUBESAT 2 26 Jan 21:11:21 21:15:34 81° 258° (WSW) 21:19:48 437.432
CUTE 1.7 + AOD 2 26 Jan 21:13:05 21:17:12 44° 261° (W) 21:21:19 437.475
DOVE 4 26 Jan 21:22:51 21:27:39 60° 261° (W) 21:32:44 437.250
DELFI C3 26 Jan 21:23:16 21:27:11 47° 76° (ENE) 21:31:08 145.870
CUBEBUG 2 26 Jan 21:26:11 21:30:38 46° 75° (ENE) 21:35:14 437.445
HO-68 26 Jan 21:26:48 21:33:34 43° 261° (W) 21:40:16 435.675
ISS 26 Jan 21:28:59 21:30:45 14° 127° (SE) 21:32:36 145.825
CINEMA 3 26 Jan 21:31:07 21:35:55 87° 253° (WSW) 21:40:57 145.822/145.860
UKube-1 26 Jan 21:37:48 21:41:59 51° 75° (ENE) 21:46:13 .
ZACube-1 26 Jan 21:46:27 21:50:54 53° 75° (ENE) 21:55:24 437.345
SEEDS 26 Jan 21:48:55 21:52:06 20° 266° (W) 21:55:09 437.485
DX 1 26 Jan 21:55:00 21:59:20 90° 352° (N) 22:03:43 434.975-435.025
FUNcube-1 26 Jan 21:59:17 22:03:49 76° 78° (ENE) 22:08:26 145.935
ESTCUBE 1 26 Jan 22:02:04 22:04:08 13° 69° (ENE) 22:06:26 437.505/2401.250
AISAT 26 Jan 22:06:10 22:10:15 39° 74° (ENE) 22:14:25 437.250
ANTELSAT 26 Jan 22:09:15 22:11:32 14° 92° (E) 22:14:02 437.575/2403.000
HUMSAT D 26 Jan 22:11:57 22:16:11 55° 76° (ENE) 22:20:29 437.325/437.525
UWE-3 26 Jan 22:12:14 22:16:48 61° 260° (W) 22:21:28 435.000/436.395/437.385
50 SAT 26 Jan 22:14:41 22:18:34 42° 75° (ENE) 22:22:31 437.505
SO-50 26 Jan 22:16:02 22:18:37 14° 251° (WSW) 22:20:55 436.795
TIGRISAT 26 Jan 22:18:09 22:21:07 18° 93° (E) 22:24:13 435.000
AIST 1 26 Jan 22:21:48 22:23:49 13° 74° (ENE) 22:26:05
JUGNU 26 Jan 22:24:47 22:29:26 23° 190° (S) 22:34:03 437.505
POPSAT HIP 1 26 Jan 22:24:49 22:26:18 12° 92° (E) 22:28:04 437.405
DUCHIFAT 1 26 Jan 22:28:45 22:30:43 13° 92° (E) 22:32:56 145.980
VELOX 1 26 Jan 22:35:37 22:40:02 88° 80° (E) 22:44:29 145.980
YUBILEINY 26 Jan 22:36:18 22:39:41 12° 296° (WNW) 22:42:14 435.215
Oscar 11 26 Jan 22:42:05 22:44:36 14° 267° (W) 22:46:54 145.826/435.025
